Flag for Netherlands Weather past 2 weeks in Groningen, Netherlands

Now
73 °F

Overcast.


Feels Like: 76 °F
Forecast: 61 / 74 °F
Wind: 12 mph from Northeast

Location: Groningen Eelde Airport

Current Time: Aug 30, 2015 at 4:17:30 PM

Latest Report: Aug 30, 2015 at 3:25 PM


Visibility: N/A

Pressure: 30.04 "Hg

Humidity: 65%

Dew point: 61 °F

Location of GroningenLocation

Historic Weather in Groningen — Graph

°F

Groningen temperature yesterday

Maximum temperature yesterday: 72 °F (at 2:55 PM)
Minimum temperature yesterday: 50 °F (at 1:25 AM)
Average temperature yesterday: 60 °F

Past Weeks' High & Low Weather Summary

 TemperatureHumidityPressure
High77 °F (Aug 21, 2:25 PM)100% (Aug 16, 4:25 AM)30.24 "Hg (Aug 16, 4:25 AM)
Low50 °F (Aug 20, 5:55 AM)39% (Aug 22, 3:25 PM)29.45 "Hg (Aug 24, 6:25 PM)
Average63 °F82%29.94 "Hg
* Reported Aug 15 2:25 PM — Aug 30 2:55 PM, Groningen, Weather by CustomWeather, © 2015

Note: Actual official high and low records may vary slightly from our data, if they occured in-between our weather recording intervals... More about our weather records

Advertising

Groningen weather history for previous 24 hours

 ConditionsComfort  
Time TempWeatherWind HumidityBarometerVisibility
2:55 PM
Sun, Aug 30
73 °FOvercast.10 mph65%30.04 "HgN/A
2:25 PM72 °FOvercast.12 mph65%30.04 "HgN/A
1:55 PM72 °FOvercast.12 mph69%30.04 "HgN/A
1:25 PM70 °FMostly cloudy.13 mph73%30.07 "HgN/A
12:55 PM70 °FOvercast.12 mph73%30.07 "HgN/A
12:25 PM70 °FClear.12 mph69%30.07 "HgN/A
11:55 AM68 °FClear.10 mph73%30.07 "HgN/A
11:25 AM68 °FClear.8 mph73%30.07 "HgN/A
10:55 AM66 °FClear.9 mph73%30.07 "HgN/A
10:25 AM64 °FMild.9 mph78%30.07 "HgN/A
9:55 AM63 °FClear.7 mph83%30.07 "HgN/A
9:25 AM63 °FPassing clouds.6 mph77%30.09 "HgN/A
8:55 AM61 °FClear.6 mph83%30.09 "HgN/A
8:25 AM61 °FClear.7 mph83%30.09 "HgN/A
7:55 AM59 °FClear.6 mph88%30.09 "HgN/A
7:25 AM57 °FClear.5 mph94%30.07 "HgN/A
6:55 AM55 °FClear.5 mph100%30.09 "HgN/A
5:55 AM55 °FCool.3 mph94%30.09 "Hg4 mi
5:25 AM55 °FClear.5 mph100%30.09 "Hg6 mi
4:55 AM57 °FPassing clouds.1 mph94%30.09 "HgN/A
4:25 AM59 °FLight rain. Passing clouds.1 mph88%30.12 "HgN/A
3:55 AM57 °FPassing clouds.3 mph94%30.09 "HgN/A
3:25 AM57 °FClear.2 mph94%30.12 "HgN/A
2:55 AM57 °FClear.5 mph94%30.12 "HgN/A
2:25 AM57 °FClear.2 mph94%30.12 "HgN/A
1:55 AM57 °FClear.3 mph94%30.12 "HgN/A
1:25 AM55 °FClear.1 mph100%30.12 "HgN/A
12:55 AM55 °FClear.1 mph100%30.12 "Hg5 mi
12:25 AM55 °FCool.2 mph100%30.12 "HgN/A
11:55 PM
Sat, Aug 29
55 °FCool.5 mph94%30.12 "HgN/A
10:55 PM57 °FClear.1 mph88%30.15 "HgN/A
10:25 PM57 °FClear.3 mph88%30.15 "HgN/A
9:55 PM57 °FCool.No wind88%30.12 "HgN/A
9:25 PM59 °FCool.2 mph82%30.12 "HgN/A
8:55 PM61 °FCool.1 mph77%30.12 "HgN/A
8:25 PM63 °FMild.3 mph73%30.12 "HgN/A
7:55 PM64 °FClear.5 mph68%30.15 "HgN/A
7:25 PM66 °FClear.3 mph68%30.12 "HgN/A
6:55 PM68 °FMild.6 mph64%30.12 "HgN/A
6:25 PM70 °FMild.7 mph60%30.15 "HgN/A
5:55 PM70 °FMild.6 mph64%30.15 "HgN/A
5:25 PM70 °FMild.6 mph60%30.15 "HgN/A
4:55 PM70 °FClear.6 mph60%30.15 "HgN/A
4:25 PM70 °FMild.7 mph60%30.15 "HgN/A
Weather by CustomWeather, © 2015

See weather overviewHow to use our weather pages